Regional Weather Roundup
Issued by NWS

Home | Current Version | Previous Version | Graphics & Text | Print | Product List | Glossary On
Versions: 1 2 3 4 5 6 7 8 9 10 11 12 13 14 15 16 17 18 19 20 21 22 23 24 25 26 27 28 29 30 31 32 33 34 35 36 37 38 39 40 41 42 43 44 45 46 47 48 49 50
151
ASUS45 KTFX 192010
RWRMT
MONTANA REGIONAL WEATHER ROUNDUP
NATIONAL WEATHER SERVICE GREAT FALLS MT
100 PM MST THU JAN 19 2017

NOTE: "FAIR" INDICATES FEW OR NO CLOUDS BELOW 12000 FEET WITH NO
SIGNIFICANT WEATHER AND/OR OBSTRUCTIONS TO VISIBILITY.

MTZ001>007-043-192100-
WEST OF THE DIVIDE

CITY           SKY/WX    TMP DP  RH WIND       PRES   REMARKS
KALISPELL      CLOUDY    36  32  85 CALM      29.52F
MISSOULA       RAIN      34  30  86 W3        29.56F
BUTTE          CLOUDY    35  24  64 CALM      29.54F
MULLAN PASS    SNOW      30  27  88 VRB3      29.51F VSB 1/2
ANACONDA         N/A     41  28  60 S12G17    29.51F
DEER LODGE       N/A     39  30  70 CALM      29.54S
EUREKA           N/A     43  30  61 CALM      29.51S
HAMILTON         N/A     39  30  70 CALM      29.53F
PLAINS           N/A     32  27  82 CALM      29.60F
RONAN            N/A     37  33  85 CALM      29.62S
THOMPSON FALLS   N/A     37  35  92 CALM      29.64F
$$

MTZ008-052>055-192100-
SOUTHWEST MONTANA

CITY           SKY/WX    TMP DP  RH WIND       PRES   REMARKS
BOZEMAN        CLOUDY    35  27  72 NE3       29.55F
DILLON         CLOUDY    47  25  42 W6        29.56F
W YELLOWSTONE  CLOUDY    27  25  93 S10       29.65F FOG     WCI  17
ENNIS          PTSUNNY   34  25  69 S23G30    29.61F WCI  22
TWIN BRIDGES     N/A     35  23  62 S12       29.62F WCI  27
$$

MTZ009-010-012-014-046-048-049-054-192100-
EAST SLOPES AND CENTRAL MONTANA

CITY           SKY/WX    TMP DP  RH WIND       PRES   REMARKS
CUT BANK       CLOUDY    42  28  57 SW21G31   29.41F
GREAT FALLS    MOSUNNY   42  29  59 SW14      29.45F
MALMSTROM AFB  CLOUDY    42  30  62 S13       29.46F
HELENA         CLOUDY    34  25  69 CALM      29.51F
AUGUSTA          N/A     43  29  58 SW12      29.43F
BOWMANS CRNR     N/A     36  30  78 S17       29.43F WCI  26
CHOTEAU          N/A     45  28  53 SW8G14    29.44F
CONRAD           N/A     39  35  85 S2        29.50S
POWER            N/A     38  29  72 SW12      29.44F WCI  30
RAYNESFORD     PTSUNNY   46  29  52 CALM      29.46F
ULM            PTSUNNY   41  30  66 MISG      29.47F
$$

MTZ011-013-016-021-045-047-050-051-192100-
NORTH CENTRAL MONTANA

CITY           SKY/WX    TMP DP  RH WIND       PRES   REMARKS
HAVRE          MOSUNNY   42  33  70 SW9       29.42F
LEWISTOWN      CLOUDY    41  30  65 CALM      29.45F
CHINOOK          N/A     46  34  61 CALM      29.41S
DENTON         PTSUNNY   43  30  60 W24       29.40F
FORT BENTON      N/A     46  28  49 MISG      29.44F
GEYSER           N/A     43  29  57 W12       29.44F
GRASS RANGE    PTSUNNY   48  29  48 W16       29.40F
JUDITH GAP     PTSUNNY   42  28  59 NW7       29.45F
ROY            CLOUDY    48  31  51 MISG      29.40F
STANFORD       PTSUNNY   42  31  63 NE6       29.45F
WINIFRED       PTSUNNY   45  31  58 W8        29.43F
$$

MTZ017>020-022>027-061-062-192100-
NORTHEAST MONTANA

CITY           SKY/WX    TMP DP  RH WIND       PRES   REMARKS
GLASGOW        SUNNY     31  23  72 VRB5      29.42F
JORDAN           N/A     44  31  60 W9        29.42F
SIDNEY         CLOUDY    29  22  75 S10       29.44F WCI  20
WOLF POINT     CLOUDY    28  21  75 CALM      29.44F
PLENTYWOOD       N/A     32  25  74 E7        29.40F WCI  26
POPLAR           N/A     27  19  74 CALM      29.44F
SCOBEY           N/A     31  20  63 S2        29.43F
$$

MTZ028>42-056>058-192100-
SOUTHCENTRAL AND SOUTHEAST MONTANA

CITY           SKY/WX    TMP DP  RH WIND       PRES   REMARKS
BAKER          CLOUDY    35  24  64 W5        29.46F
BILLINGS       PTSUNNY   41  26  55 W14       29.48F
LIVINGSTON     CLOUDY    43  23  45 SW39G52   29.47F
MILES CITY     CLOUDY    28  19  69 S12       29.46F WCI  18
BIG TIMBER     SUNNY     45  25  45 W23G33    29.50F
EKALAKA          N/A     40  20  45 SW8       29.49F
FORSYTH          N/A     36  19  51 CALM      29.45F
HARLOWTON      PTSUNNY   45  27  49 NW23G30   29.45F
LAUREL           N/A     39  24  55 SW7       29.52F
$$

REGIONAL REPORTS...DAKOTAS

CITY           SKY/WX    TMP DP  RH WIND       PRES   REMARKS
WILLISTON      CLOUDY    34  22  61 E3        29.44F
MINOT          CLOUDY    37  30  75 NE3       29.43F
DICKINSON      CLOUDY    34  24  67 W5        29.41F
BEACH            N/A     37  25  60 CALM      29.46F
CROSBY           N/A     32  27  80 S16       29.43F WCI  21
TIOGA            N/A     32  30  93 CALM      29.44F
WATFORD CITY     N/A     28  23  80 CALM      29.45F
BISMARCK       CLOUDY    26  20  77 E3        29.48F
GRAND FORKS    CLOUDY    29  25  85 S17       29.55S FOG     WCI  17
FARGO          SUNNY     38  34  85 S10       29.58F WCI  31
BUFFALO SD       N/A     36  24  62 NW8       29.39F WCI  30
RAPID CITY     SUNNY     35  26  69 SE6       29.46S WCI  30
$$

REGIONAL REPORTS...WYOMING/IDAHO/WASHINGTON

CITY           SKY/WX    TMP DP  RH WIND       PRES   REMARKS
GILLETTE       CLOUDY    46  25  43 W12       29.47S
SHERIDAN       CLOUDY    37  23  56 S6        29.46F
BUFFALO WY     CLOUDY    47  19  33 N6        29.47F
CODY           CLOUDY    27  19  72 NE3       29.51F
YELLOWSTONE LA   N/A     27  24  89 CALM      29.65F
IDAHO FALLS    CLOUDY    32  29  88 S7        29.69F FOG     WCI  26
SALMON         CLOUDY    28  23  80 SE3       29.62F
BOISE          CLOUDY    37  32  82 VRB7      29.67S WCI  32
SPOKANE        PTSUNNY   38  33  82 S6        29.57F
$$

REGIONAL REPORTS...ALBERTA

CITY           SKY/WX    TMP DP  RH WIND       PRES   REMARKS
EDMONTON       PTSUNNY   36  23  60 SE2       29.16F
CALGARY        PTSUNNY   46  25  42 W13       29.23F
LETHBRIDGE     PTSUNNY   41  32  70 SW15G21   29.34R
MEDICINE HAT   PTSUNNY   48  36  61 S16G24    29.31S
WATERTON GATE    N/A     45  21  39 SW17G30     N/A
CARDSTON         N/A     45  27  49 SW5         N/A
MILK RIVER       N/A     43  32  65 SW17G23     N/A
$$

REGIONAL REPORTS...SASKATCHEWAN

CITY           SKY/WX    TMP DP  RH WIND       PRES   REMARKS
SWIFT CURRENT  CLOUDY    46  34  61 SW13      29.33F
REGINA         PTSUNNY   37  30  75 SE6       29.38F
SASKATOON      CLOUDY    37  32  81 S9        29.30F WCI  31
CYPRESS HILLS    N/A     37  27  65 SW7         N/A
ROCKGLEN         N/A     43  30  61 W7          N/A
ASSINIBOIA       N/A     36  28  75 S6          N/A  WCI  31
$$




USA.gov is the U.S. government's official web portal to all federal, state and local government web resources and services.